"TOA5","MOW","CPU:UNC_MeetingWaters","DataHourly"
"TIMESTAMP","SondeTempC","SpCond","DOSat","DOmg","pH","Turb","BattVolt_Min"
"TS","","","","","","",""
"","Smp","Smp","Smp","Smp","Smp","Smp","Min"
"2001-09-01 00:00:00",23.4899997711,0.270000010729,-0.300000011921,-0.0299999993294,7.51999998093,25.2000007629,12.6400003433
"2001-09-01 01:00:00",23.3600006104,0.268999993801,-0.300000011921,-0.0299999993294,7.53000020981,20.7000007629,12.6199998856
"2001-09-01 02:00:00",23.2299995422,0.266999989748,-0.300000011921,-0.0299999993294,7.53000020981,17.3999996185,12.6099996567
"2001-09-01 03:00:00",23.0900001526,0.263999998569,-0.300000011921,-0.0299999993294,7.55000019073,15.6000003815,12.6000003815
"2001-09-01 04:00:00",22.9799995422,0.261000007391,-0.300000011921,-0.0299999993294,7.55999994278,14.1999998093,12.5799999237
"2001-09-01 05:00:00",22.8500003815,0.268999993801,-0.300000011921,-0.0299999993294,7.57000017166,14.1999998093,12.5699996948
"2001-09-01 06:00:00",22.7299995422,0.296000003815,-0.300000011921,-0.0299999993294,7.59999990463,12.6999998093,12.5500001907
"2001-09-01 07:00:00",22.6299991608,0.361999988556,-0.300000011921,-0.0299999993294,7.63999986649,11.5,12.5399999619
"2001-09-01 08:00:00",22.5699996948,0.407000005245,-0.300000011921,-0.0299999993294,7.67999982834,10.8000001907,12.5200004578
"2001-09-01 09:00:00",22.5400009155,0.430000007153,-0.300000011921,-0.0299999993294,7.69999980927,10.1999998093,12.5500001907
"2001-09-01 10:00:00",22.5599994659,0.419999986887,-0.300000011921,-0.0299999993294,7.69999980927,10.1999998093,12.5200004578
"2001-09-01 11:00:00",22.6100006104,0.365999996662,-0.300000011921,-0.0299999993294,7.69999980927,27.3999996185,12.7399997711
"2001-09-01 12:00:00",23.0,0.225999996066,-0.300000011921,-0.019999999553,7.65000009537,49.4000015259,12.779999733
"2001-09-01 13:00:00",23.0400009155,0.193000003695,-0.300000011921,-0.0299999993294,7.53999996185,29.7999992371,12.8100004196
"2001-09-01 14:00:00",23.1399993896,0.172000005841,-0.300000011921,-0.0299999993294,7.48000001907,29.2000007629,13.1499996185
"2001-09-01 15:00:00",23.2399997711,0.156000003219,-0.300000011921,-0.0299999993294,7.44999980927,26.2999992371,12.8999996185
"2001-09-01 16:00:00",23.3299999237,0.16400000453,-0.300000011921,-0.0299999993294,7.44000005722,22.1000003815,12.8000001907
"2001-09-01 17:00:00",24.4099998474,0.0939999967813,-0.300000011921,-0.0299999993294,7.55000019073,242.0,12.8199996948
"2001-09-01 18:00:00",24.2600002289,0.0759999975562,-0.300000011921,-0.0299999993294,7.30999994278,139.399993896,12.7100000381
"2001-09-01 19:00:00",24.0499992371,0.0890000015497,-0.300000011921,-0.0299999993294,7.23000001907,98.5,12.6800003052
"2001-09-01 20:00:00",23.8400001526,0.10000000149,-0.300000011921,-0.0299999993294,7.17999982834,84.5999984741,12.6599998474
"2001-09-01 21:00:00",23.5900001526,0.123000003397,-0.300000011921,-0.0299999993294,7.23000001907,74.8000030518,12.6400003433
"2001-09-01 22:00:00",23.4099998474,0.138999998569,-0.300000011921,-0.0299999993294,7.28000020981,57.2000007629,12.6199998856
"2001-09-01 23:00:00",23.2199993134,0.157000005245,-0.300000011921,-0.0299999993294,7.30999994278,43.9000015259,12.6000003815
"2001-09-02 00:00:00",23.0200004578,0.171000003815,-0.300000011921,-0.0299999993294,7.34000015259,33.2000007629,12.5799999237
"2001-09-02 01:00:00",22.8500003815,0.184000000358,-0.300000011921,-0.0299999993294,7.38000011444,25.1000003815,12.5500001907
"2001-09-02 02:00:00",22.6900005341,0.194999992847,-0.300000011921,-0.0299999993294,7.40999984741,18.3999996185,12.5100002289
"2001-09-02 03:00:00",22.5100002289,0.209999993443,-0.300000011921,-0.0299999993294,7.44000005722,15.1000003815,12.4899997711
"2001-09-02 04:00:00",22.3400001526,0.22499999404,-0.300000011921,-0.0299999993294,7.46999979019,11.0,12.4799995422
"2001-09-02 05:00:00",22.2399997711,0.231999993324,-0.300000011921,-0.0299999993294,7.5,9.80000019073,12.470000267
"2001-09-02 06:00:00",22.1200008392,0.238999992609,-0.300000011921,-0.0299999993294,7.51999998093,8.60000038147,12.470000267
"2001-09-02 07:00:00",22.0400009155,0.24699999392,-0.300000011921,-0.0299999993294,7.53999996185,8.60000038147,12.4600000381
"2001-09-02 08:00:00",22.0,0.263999998569,-0.300000011921,-0.019999999553,7.57000017166,7.5,12.4600000381
"2001-09-02 09:00:00",22.0200004578,0.280999988317,-0.300000011921,-0.019999999553,7.59999990463,7.09999990463,12.5500001907
"2001-09-02 10:00:00",22.1499996185,0.291000008583,-0.300000011921,-0.0299999993294,7.63999986649,7.0,13.0399999619
"2001-09-02 11:00:00",22.5699996948,0.287999987602,-0.300000011921,-0.0299999993294,7.67000007629,6.40000009537,13.1400003433
"2001-09-02 12:00:00",22.7800006866,0.282000005245,-0.300000011921,-0.0299999993294,7.67000007629,6.69999980927,12.9899997711
"2001-09-02 13:00:00",23.1599998474,0.270000010729,-0.300000011921,-0.0299999993294,7.69000005722,7.59999990463,13.0900001526
"2001-09-02 14:00:00",23.1399993896,0.263999998569,-0.300000011921,-0.0299999993294,7.71000003815,7.09999990463,12.8400001526
"2001-09-02 15:00:00",23.0499992371,0.261999994516,-0.300000011921,-0.0299999993294,7.69999980927,8.30000019073,13.0100002289
"2001-09-02 16:00:00",23.1599998474,0.263000011444,-0.300000011921,-0.0299999993294,7.71999979019,8.60000038147,13.0799999237
"2001-09-02 17:00:00",23.2199993134,0.268000006676,-0.300000011921,-0.0299999993294,7.71000003815,7.30000019073,13.0699996948
"2001-09-02 18:00:00",23.1299991608,0.273999989033,-0.300000011921,-0.0299999993294,7.69999980927,6.30000019073,12.8000001907
"2001-09-02 19:00:00",23.0300006866,0.280000001192,-0.300000011921,-0.0299999993294,7.67999982834,5.69999980927,12.720000267
"2001-09-02 20:00:00",22.9300003052,0.286000013351,-0.300000011921,-0.0299999993294,7.65999984741,5.0,12.6899995804
"2001-09-02 21:00:00",22.8199996948,0.293000012636,-0.300000011921,-0.0299999993294,7.63999986649,5.19999980927,12.6700000763
"2001-09-02 22:00:00",22.7000007629,0.289999991655,-0.300000011921,-0.0299999993294,7.63999986649,4.59999990463,12.6599998474
"2001-09-02 23:00:00",22.5599994659,0.28900000453,-0.300000011921,-0.0299999993294,7.63999986649,4.5,12.6400003433
"2001-09-03 00:00:00",22.4200000763,0.291000008583,-0.300000011921,-0.0299999993294,7.61999988556,5.19999980927,12.6300001144
"2001-09-03 01:00:00",22.25,0.282999992371,-0.300000011921,-0.0299999993294,7.63000011444,7.09999990463,12.6199998856
"2001-09-03 02:00:00",22.1399993896,0.287000000477,-0.300000011921,-0.0299999993294,7.63999986649,6.09999990463,12.6000003815
"2001-09-03 03:00:00",22.0,0.287999987602,-0.300000011921,-0.019999999553,7.63999986649,6.09999990463,12.5900001526
"2001-09-03 04:00:00",21.8400001526,0.282999992371,-0.300000011921,-0.0299999993294,7.65000009537,5.90000009537,12.5699996948
"2001-09-03 05:00:00",21.6800003052,0.280000001192,-0.300000011921,-0.019999999553,7.65000009537,6.0,12.5600004196
"2001-09-03 06:00:00",21.5200004578,0.286000013351,-0.300000011921,-0.019999999553,7.63999986649,5.69999980927,12.5399999619
"2001-09-03 07:00:00",21.3700008392,0.282999992371,-0.300000011921,-0.019999999553,7.65999984741,6.0,12.529999733
"2001-09-03 08:00:00",21.2700004578,0.286000013351,-0.300000011921,-0.019999999553,7.67999982834,6.0,12.5399999619
"2001-09-03 09:00:00",21.2700004578,0.284999996424,-0.300000011921,-0.019999999553,7.71999979019,4.59999990463,12.6599998474
"2001-09-03 10:00:00",21.3799991608,0.28900000453,-0.300000011921,-0.019999999553,7.75,5.69999980927,12.8599996567
"2001-09-03 11:00:00",21.5400009155,0.312000006437,-0.300000011921,-0.019999999553,7.78000020981,5.5,13.1499996185
"2001-09-03 12:00:00",21.7000007629,0.277999997139,-0.300000011921,-0.0299999993294,7.80000019073,8.0,13.1000003815
"2001-09-03 13:00:00",21.9200000763,0.293999999762,-0.300000011921,-0.019999999553,7.82000017166,6.0,13.1700000763
"2001-09-03 14:00:00",21.9899997711,0.294999986887,-0.300000011921,-0.019999999553,7.80999994278,6.40000009537,12.9300003052
"2001-09-03 15:00:00",22.0100002289,0.287000000477,-0.300000011921,-0.019999999553,7.82000017166,5.90000009537,13.1800003052
"2001-09-03 16:00:00",22.0699996948,0.280000001192,-0.300000011921,-0.0299999993294,7.80999994278,6.19999980927,12.9499998093
"2001-09-03 17:00:00",22.1299991608,0.244000002742,-0.300000011921,-0.0299999993294,7.82000017166,5.90000009537,12.8199996948
"2001-09-03 18:00:00",22.1299991608,0.272000014782,-0.300000011921,-0.0299999993294,7.80000019073,6.09999990463,12.7899999619
"2001-09-03 19:00:00",22.0699996948,0.21400000155,-0.300000011921,-0.0299999993294,7.78000020981,7.0,12.720000267
"2001-09-03 20:00:00",21.9599990845,0.239999994636,-0.300000011921,-0.0299999993294,7.76999998093,8.10000038147,12.6999998093
"2001-09-03 21:00:00",21.8600006104,0.301999986172,-0.300000011921,-0.019999999553,7.73999977112,10.3000001907,12.6800003052
"2001-09-03 22:00:00",21.7800006866,0.239999994636,-0.300000011921,-0.0299999993294,7.71999979019,10.8000001907,12.6700000763
"2001-09-03 23:00:00",21.7199993134,0.247999995947,-0.300000011921,-0.0299999993294,7.73000001907,9.5,12.6599998474
"2001-09-04 00:00:00",21.6800003052,0.31400001049,-0.300000011921,-0.0299999993294,7.73000001907,8.69999980927,12.6400003433
"2001-09-04 01:00:00",21.6299991608,0.207000002265,-0.300000011921,-0.019999999553,7.73000001907,7.30000019073,12.6199998856
"2001-09-04 02:00:00",21.5900001526,0.21400000155,-0.300000011921,-0.019999999553,7.73000001907,12.3000001907,12.6099996567
"2001-09-04 03:00:00",21.5499992371,0.314999997616,-0.300000011921,-0.019999999553,7.71999979019,6.0,12.5900001526
"2001-09-04 04:00:00",21.5200004578,0.321999996901,-0.300000011921,-0.019999999553,7.71000003815,6.0,12.5799999237
"2001-09-04 05:00:00",21.4799995422,0.279000014067,-0.300000011921,-0.019999999553,7.69000005722,6.0,12.5699996948
"2001-09-04 06:00:00",21.4200000763,0.25,-0.300000011921,-0.019999999553,7.69000005722,5.90000009537,12.5500001907
"2001-09-04 07:00:00",21.3999996185,0.300999999046,-0.300000011921,-0.019999999553,7.65999984741,8.0,12.529999733
"2001-09-04 08:00:00",21.3899993896,0.316000014544,-0.300000011921,-0.019999999553,7.67000007629,13.6999998093,12.5100002289
"2001-09-04 09:00:00",21.5300006866,0.32800000906,-0.300000011921,-0.019999999553,7.69000005722,14.1000003815,12.5
"2001-09-04 10:00:00",21.8199996948,0.217999994755,-0.300000011921,-0.019999999553,7.59999990463,22.2999992371,12.6499996185
"2001-09-04 11:00:00",21.9200000763,0.208000004292,-0.300000011921,-0.019999999553,7.55000019073,18.6000003815,13.0399999619
"2001-09-04 12:00:00",22.0499992371,0.203999996185,-0.300000011921,-0.019999999553,7.53999996185,15.3999996185,13.1000003815
"2001-09-04 13:00:00",22.2700004578,0.199000000954,-0.300000011921,-0.019999999553,7.53999996185,14.6999998093,13.0600004196
"2001-09-04 14:00:00",22.4799995422,0.195999994874,-0.300000011921,-0.0299999993294,7.53999996185,16.0,13.1400003433
"2001-09-04 15:00:00",22.5200004578,0.190999999642,-0.300000011921,-0.0299999993294,7.53999996185,25.1000003815,12.8400001526
"2001-09-04 16:00:00",22.5699996948,0.195999994874,-0.300000011921,-0.0299999993294,7.53999996185,45.0999984741,12.9899997711
"2001-09-04 17:00:00",22.6499996185,0.209000006318,-0.300000011921,-0.0299999993294,7.55000019073,37.0,13.1300001144
"2001-09-04 18:00:00",22.7000007629,0.231000006199,-0.300000011921,-0.0299999993294,7.57000017166,24.8999996185,12.8000001907
"2001-09-04 19:00:00",22.6599998474,0.259000003338,-0.300000011921,-0.0299999993294,7.57000017166,19.7000007629,12.7399997711
"2001-09-04 20:00:00",22.5900001526,0.280999988317,-0.300000011921,-0.0299999993294,7.59999990463,19.2999992371,12.7100000381
"2001-09-04 21:00:00",22.5200004578,0.282999992371,-0.300000011921,-0.0299999993294,7.59000015259,17.7000007629,12.6899995804
"2001-09-04 22:00:00",22.4200000763,0.279000014067,-0.300000011921,-0.0299999993294,7.59000015259,13.6000003815,12.6800003052
"2001-09-04 23:00:00",22.2999992371,0.266000002623,-0.300000011921,-0.0299999993294,7.59000015259,11.1999998093,12.6599998474
"2001-09-05 00:00:00",22.1900005341,0.244000002742,-0.300000011921,-0.0299999993294,7.59000015259,9.60000038147,12.6499996185
"2001-09-05 01:00:00",22.0300006866,0.254999995232,-0.300000011921,-0.0299999993294,7.59000015259,8.69999980927,12.6300001144
"2001-09-05 02:00:00",21.9400005341,0.261000007391,-0.300000011921,-0.019999999553,7.59000015259,8.19999980927,12.6099996567
"2001-09-05 03:00:00",21.7999992371,0.256000012159,-0.300000011921,-0.019999999553,7.59999990463,7.5,12.5900001526
"2001-09-05 04:00:00",21.6399993896,0.209000006318,-0.300000011921,-0.019999999553,7.61000013351,7.0,12.5799999237
"2001-09-05 05:00:00",21.5,0.194000005722,-0.300000011921,-0.019999999553,7.61000013351,7.09999990463,12.5600004196
"2001-09-05 06:00:00",21.3400001526,0.202999994159,-0.300000011921,-0.019999999553,7.61000013351,7.80000019073,12.5399999619
"2001-09-05 07:00:00",21.2299995422,0.166999995708,-0.300000011921,-0.019999999553,7.61999988556,8.19999980927,12.5100002289
"2001-09-05 08:00:00",21.1399993896,0.216000005603,-0.300000011921,-0.019999999553,7.63999986649,7.30000019073,12.4899997711
"2001-09-05 09:00:00",21.2299995422,0.180999994278,-0.300000011921,-0.019999999553,7.67999982834,6.69999980927,12.5399999619
"2001-09-05 10:00:00",21.8099994659,0.305000007153,-0.300000011921,-0.019999999553,7.76000022888,6.59999990463,13.2100000381
"2001-09-05 11:00:00",22.1700000763,0.300000011921,-0.300000011921,-0.019999999553,7.76999998093,7.30000019073,13.1400003433
"2001-09-05 12:00:00",22.4699993134,0.28900000453,-0.300000011921,-0.0299999993294,7.75,6.59999990463,13.0799999237
"2001-09-05 13:00:00",23.25,0.282000005245,-0.300000011921,-0.0299999993294,7.80999994278,6.80000019073,13.0699996948
"2001-09-05 14:00:00",23.6499996185,0.275999993086,-0.300000011921,-0.0299999993294,7.84000015259,6.59999990463,13.0500001907
"2001-09-05 15:00:00",23.5100002289,0.27500000596,-0.300000011921,-0.0299999993294,7.75,6.40000009537,12.8999996185
"2001-09-05 16:00:00",23.5699996948,0.284999996424,-0.300000011921,-0.0299999993294,7.73999977112,6.80000019073,13.0200004578
"2001-09-05 17:00:00",23.4400005341,0.291999995708,-0.300000011921,-0.0299999993294,7.73999977112,6.59999990463,13.0200004578
"2001-09-05 18:00:00",23.3199996948,0.29699999094,-0.300000011921,-0.0299999993294,7.73999977112,6.40000009537,12.8000001907
"2001-09-05 19:00:00",23.2099990845,0.280000001192,-0.300000011921,-0.0299999993294,7.69999980927,6.19999980927,12.7299995422
"2001-09-05 20:00:00",23.0699996948,0.231999993324,-0.300000011921,-0.0299999993294,7.63000011444,6.40000009537,12.6999998093
"2001-09-05 21:00:00",22.9099998474,0.286000013351,-0.300000011921,-0.0299999993294,7.65000009537,5.90000009537,12.6800003052
"2001-09-05 22:00:00",22.7299995422,0.266999989748,-0.300000011921,-0.0299999993294,7.63000011444,5.90000009537,12.6599998474
"2001-09-05 23:00:00",22.5599994659,0.172999992967,-0.300000011921,-0.0299999993294,7.63000011444,5.80000019073,12.6400003433
"2001-09-06 00:00:00",22.3700008392,0.27500000596,-0.300000011921,-0.0299999993294,7.63000011444,5.90000009537,12.6300001144
"2001-09-06 01:00:00",22.2000007629,0.280000001192,-0.300000011921,-0.0299999993294,7.63999986649,7.0,12.6099996567
"2001-09-06 02:00:00",21.9899997711,0.185000002384,-0.300000011921,-0.019999999553,7.63000011444,8.60000038147,12.6000003815
"2001-09-06 03:00:00",21.7800006866,0.158999994397,-0.300000011921,-0.019999999553,7.65000009537,9.19999980927,12.5799999237
"2001-09-06 04:00:00",21.5799999237,0.232999995351,-0.300000011921,-0.019999999553,7.67000007629,7.5,12.5600004196
"2001-09-06 05:00:00",21.3700008392,0.163000002503,-0.300000011921,-0.019999999553,7.67000007629,6.69999980927,12.5399999619
"2001-09-06 06:00:00",21.1599998474,0.162000000477,-0.300000011921,-0.019999999553,7.71000003815,6.19999980927,12.5200004578
"2001-09-06 07:00:00",20.9599990845,0.16400000453,-0.300000011921,-0.019999999553,7.71000003815,6.0,12.5100002289
"2001-09-06 08:00:00",20.8600006104,0.187000006437,-0.300000011921,-0.019999999553,7.75,7.30000019073,12.4899997711
"2001-09-06 09:00:00",20.8600006104,0.168999999762,-0.300000011921,-0.019999999553,7.76999998093,5.5,12.7299995422
"2001-09-06 10:00:00",21.3999996185,0.188999995589,-0.300000011921,-0.019999999553,7.86000013351,5.09999990463,13.2399997711
"2001-09-06 11:00:00",21.8799991608,0.293000012636,-0.300000011921,-0.019999999553,7.88000011444,5.19999980927,13.1800003052
"2001-09-06 12:00:00",21.8899993896,0.291999995708,-0.300000011921,-0.0299999993294,7.82999992371,5.40000009537,12.9200000763
"2001-09-06 13:00:00",22.8199996948,0.287000000477,-0.300000011921,-0.019999999553,7.90999984741,6.0,13.1099996567
"2001-09-06 14:00:00",23.1299991608,0.263000011444,-0.300000011921,-0.0299999993294,7.92000007629,6.0,13.0900001526
"2001-09-06 15:00:00",23.3400001526,0.280999988317,-0.300000011921,-0.0299999993294,7.90000009537,5.90000009537,13.0500001907
"2001-09-06 16:00:00",23.2299995422,0.284999996424,-0.300000011921,-0.0299999993294,7.84999990463,6.30000019073,13.029999733
"2001-09-06 17:00:00",22.8299999237,0.188999995589,-0.300000011921,-0.0299999993294,7.73999977112,6.90000009537,12.9799995422
"2001-09-06 18:00:00",22.6900005341,0.275999993086,-0.300000011921,-0.0299999993294,7.67000007629,8.0,12.8199996948
"2001-09-06 19:00:00",22.5599994659,0.266000002623,-0.300000011921,-0.0299999993294,7.61999988556,15.3999996185,12.7399997711
"2001-09-06 20:00:00",22.3899993896,0.150999993086,-0.300000011921,-0.0299999993294,7.59000015259,21.7000007629,12.6999998093
"2001-09-06 21:00:00",22.1900005341,0.149000003934,-0.300000011921,-0.0299999993294,7.57999992371,20.7999992371,12.6800003052
"2001-09-06 22:00:00",21.9599990845,0.156000003219,-0.300000011921,-0.0299999993294,7.59999990463,17.7999992371,12.6599998474
"2001-09-06 23:00:00",21.7199993134,0.152999997139,-0.300000011921,-0.0299999993294,7.61999988556,13.3000001907,12.6400003433
"2001-09-07 00:00:00",21.5100002289,0.157000005245,-0.300000011921,-0.0299999993294,7.65999984741,11.3000001907,12.6199998856
"2001-09-07 01:00:00",21.2900009155,0.305999994278,-0.300000011921,-0.019999999553,7.67000007629,9.39999961853,12.6000003815
"2001-09-07 02:00:00",21.0499992371,0.167999997735,-0.300000011921,-0.019999999553,7.69999980927,9.60000038147,12.5900001526
"2001-09-07 03:00:00",20.8299999237,0.163000002503,-0.300000011921,-0.019999999553,7.69999980927,9.89999961853,12.5699996948
"2001-09-07 04:00:00",20.5799999237,0.172000005841,-0.300000011921,-0.019999999553,7.71000003815,8.80000019073,12.5500001907
"2001-09-07 05:00:00",20.2999992371,0.163000002503,-0.300000011921,-0.019999999553,7.71000003815,8.39999961853,12.5399999619
"2001-09-07 06:00:00",20.1299991608,0.163000002503,-0.300000011921,-0.019999999553,7.69000005722,7.40000009537,12.5100002289
"2001-09-07 07:00:00",19.8999996185,0.165000006557,-0.300000011921,-0.019999999553,7.73999977112,6.09999990463,12.4899997711
"2001-09-07 08:00:00",19.7399997711,0.168999999762,-0.300000011921,-0.019999999553,7.76000022888,5.40000009537,12.4600000381
"2001-09-07 09:00:00",19.7700004578,0.170000001788,-0.20000000298,-0.019999999553,7.80000019073,5.09999990463,12.6199998856
"2001-09-07 10:00:00",20.4099998474,0.305000007153,-0.20000000298,-0.019999999553,7.86999988556,4.80000019073,13.279999733
"2001-09-07 11:00:00",20.8999996185,0.312999993563,-0.300000011921,-0.019999999553,7.88999986649,4.40000009537,13.1999998093
"2001-09-07 12:00:00",21.0599994659,0.305999994278,-0.300000011921,-0.019999999553,7.88000011444,4.69999980927,12.9499998093
"2001-09-07 13:00:00",21.5900001526,0.270999997854,-0.300000011921,-0.019999999553,7.92000007629,4.40000009537,12.8999996185
"2001-09-07 14:00:00",22.4899997711,0.171000003815,-0.300000011921,-0.0299999993294,7.94999980927,4.19999980927,13.0900001526
"2001-09-07 15:00:00",22.7099990845,0.184000000358,-0.300000011921,-0.0299999993294,7.92999982834,4.30000019073,13.0399999619
"2001-09-07 16:00:00",22.6800003052,0.194000005722,-0.300000011921,-0.0299999993294,7.86000013351,4.69999980927,13.0200004578
"2001-09-07 17:00:00",22.3700008392,0.172000005841,-0.300000011921,-0.0299999993294,7.84000015259,4.69999980927,13.0399999619
"2001-09-07 18:00:00",22.1900005341,0.192000001669,-0.300000011921,-0.0299999993294,7.80999994278,4.5,12.7899999619
"2001-09-07 19:00:00",22.0400009155,0.180999994278,-0.300000011921,-0.0299999993294,7.78000020981,4.5,12.7399997711
"2001-09-07 20:00:00",21.8799991608,0.172999992967,-0.300000011921,-0.0299999993294,7.73000001907,4.80000019073,12.6999998093
"2001-09-07 21:00:00",21.6700000763,0.168999999762,-0.300000011921,-0.0299999993294,7.71000003815,4.59999990463,12.6800003052
"2001-09-07 22:00:00",21.4799995422,0.172000005841,-0.300000011921,-0.0299999993294,7.67000007629,4.40000009537,12.6599998474
"2001-09-07 23:00:00",21.3099994659,0.162000000477,-0.300000011921,-0.0299999993294,7.67000007629,4.40000009537,12.6400003433
"2001-09-08 00:00:00",21.0799999237,0.167999997735,-0.300000011921,-0.019999999553,7.69000005722,4.30000019073,12.6199998856
"2001-09-08 01:00:00",20.8799991608,0.289999991655,-0.300000011921,-0.019999999553,7.67999982834,5.30000019073,12.6000003815
"2001-09-08 02:00:00",20.6399993896,0.163000002503,-0.300000011921,-0.019999999553,7.67999982834,6.30000019073,12.5900001526
"2001-09-08 03:00:00",20.4400005341,0.156000003219,-0.300000011921,-0.019999999553,7.67999982834,6.19999980927,12.5699996948
"2001-09-08 04:00:00",20.2099990845,0.165000006557,-0.300000011921,-0.019999999553,7.71000003815,6.09999990463,12.5500001907
"2001-09-08 05:00:00",20.0100002289,0.158999994397,-0.300000011921,-0.019999999553,7.69999980927,5.69999980927,12.529999733
"2001-09-08 06:00:00",19.8099994659,0.159999996424,-0.300000011921,-0.019999999553,7.71999979019,4.59999990463,12.5
"2001-09-08 07:00:00",19.5900001526,0.163000002503,-0.20000000298,-0.019999999553,7.71000003815,4.19999980927,12.4799995422
"2001-09-08 08:00:00",19.4699993134,0.167999997735,-0.20000000298,-0.019999999553,7.73999977112,3.90000009537,12.4600000381
"2001-09-08 09:00:00",19.4699993134,0.170000001788,-0.20000000298,-0.019999999553,7.76999998093,3.79999995232,12.5200004578
"2001-09-08 10:00:00",20.1599998474,0.179000005126,-0.20000000298,-0.019999999553,7.84999990463,3.79999995232,13.2700004578
"2001-09-08 11:00:00",20.7199993134,0.181999996305,-0.300000011921,-0.019999999553,7.86999988556,3.70000004768,13.1899995804
"2001-09-08 12:00:00",20.8400001526,0.187999993563,-0.300000011921,-0.0299999993294,7.86999988556,3.79999995232,13.0100002289
"2001-09-08 13:00:00",21.7900009155,0.179000005126,-0.300000011921,-0.019999999553,7.88000011444,3.5,13.1099996567
"2001-09-08 14:00:00",22.4799995422,0.166999995708,-0.300000011921,-0.0299999993294,7.92999982834,3.70000004768,13.0699996948
"2001-09-08 15:00:00",22.7199993134,0.16099999845,-0.300000011921,-0.0299999993294,7.92999982834,3.90000009537,13.0200004578
"2001-09-08 16:00:00",22.7999992371,0.177000001073,-0.300000011921,-0.0299999993294,7.92999982834,3.70000004768,13.0
"2001-09-08 17:00:00",22.3099994659,0.16099999845,-0.300000011921,-0.0299999993294,7.88000011444,3.90000009537,13.0
"2001-09-08 18:00:00",22.1000003815,0.159999996424,-0.300000011921,-0.0299999993294,7.82000017166,3.90000009537,12.7899999619
"2001-09-08 19:00:00",21.9899997711,0.158000007272,-0.300000011921,-0.0299999993294,7.78999996185,3.79999995232,12.7399997711
"2001-09-08 20:00:00",21.8600006104,0.157000005245,-0.300000011921,-0.0299999993294,7.76999998093,4.0,12.6999998093
"2001-09-08 21:00:00",21.7199993134,0.157000005245,-0.300000011921,-0.0299999993294,7.73999977112,5.40000009537,12.6800003052
"2001-09-08 22:00:00",21.5699996948,0.16099999845,-0.300000011921,-0.019999999553,7.73999977112,7.30000019073,12.6599998474
"2001-09-08 23:00:00",21.4099998474,0.157000005245,-0.300000011921,-0.019999999553,7.73000001907,8.5,12.6400003433